QPF
0.00 0.00 0.00 0.00 0.00 0.00 0.00 0.00 0.00 0.00 0.00 0.00 0.00 0.00 0.00 0.00 0.00 0.00 0.00 0.00 0.00 0.00 0.00 0.00 0.00 0.00 0.00 0.00 0.00 0.00 0.00 0.00 0.00 0.00 0.00 0.00 0.00 0.00 0.00 0.00 0.00 0.00 0.00 0.00 0.00 0.00 0.00
0.00 0.00 0.00 0.00 0.00 0.00 0.00 0.00 0.00 0.00 0.00 0.00 0.00 0.00 0.00 0.00 0.00 0.00 0.00 0.00 0.00 0.00 0.00 0.00 0.00 0.00 0.00 0.00 0.00 0.00 0.00 0.00 0.00 0.00 0.00 0.00 0.00 0.00 0.00 0.00 0.00 0.00 0.00 0.00 0.00 0.00 0.00
0.00 0.00 0.00 0.00 0.00 0.00 0.00 0.00 0.00 0.00 0.00 0.00 0.00 0.00 0.00 0.00 0.00 0.00 0.00 0.00 0.00 0.00 0.00 0.00 0.00 0.00 0.00 0.00 0.00 0.00 0.00 0.00 0.00 0.00 0.00 0.00 0.00 0.00 0.00 0.00 0.00 0.00 0.00 0.00 0.00 0.00 0.00
0.00 0.00 0.00 0.00 0.00 0.00 0.00 0.00 0.00 0.00 0.00 0.00 0.00 0.00 0.00 0.00 0.00 0.00 0.00 0.00 0.00 0.00 0.00 0.00 0.00 0.00 0.00 0.00 0.00 0.00 0.00 0.00 0.00 0.00 0.00 0.00 0.00 0.00 0.00 0.00 0.00 0.00 0.00 0.00 0.00 0.00 0.00
0.00 0.00 0.00 0.00 0.00 0.00 0.00 0.00 0.00 0.00 0.00 0.00 0.00 0.00 0.00 0.00 0.00 0.00 0.00 0.00 0.00 0.00 0.00 0.00 0.00 0.00 0.00 0.00 0.00 0.00 0.00 0.00 0.00 0.00 0.00 0.00 0.00 0.00 0.00 0.00 0.00 0.00 0.00 0.00 0.00 0.00 0.00
0.00 0.00 0.00 0.00 0.00 0.00 0.00 0.00 0.00 0.00 0.00 0.00 0.00 0.00 0.00 0.00 0.00 0.00 0.00 0.00 0.00 0.00 0.00 0.00 0.00 0.00 0.00 0.00 0.00 0.00 0.00 0.00 0.00 0.00 0.00 0.00 0.00 0.00 0.00 0.00 0.00 0.00 0.00 0.00 0.00 0.00 0.00
0.00 0.00 0.00 0.00 0.00 0.00 0.00 0.00 0.00 0.00 0.00 0.00 0.00 0.00 0.00 0.00 0.00 0.00 0.00 0.00 0.00 0.00 0.00 0.00 0.00 0.00 0.00 0.00 0.00 0.00 0.00 0.00 0.00 0.00 0.00 0.00 0.00 0.00 0.00 0.00 0.00 0.00 0.00 0.00 0.00 0.00 0.00
0.00 0.00 0.00 0.00 0.00 0.00 0.00 0.00 0.00 0.00 0.00 0.00 0.00 0.00 0.00 0.00 0.00 0.00 0.00 0.00 0.00 0.00 0.00 0.00 0.00 0.00 0.00 0.00 0.00 0.00 0.00 0.00 0.00 0.00 0.00 0.00 0.00 0.00 0.00 0.00 0.00 0.00 0.00 0.00 0.00 0.00 0.00
0.00 0.00 0.00 0.00 0.00 0.00 0.00 0.00 0.00 0.00 0.00 0.00 0.00 0.00 0.00 0.00 0.00 0.00 0.00 0.00 0.00 0.00 0.00 0.00 0.00 0.00 0.00 0.00 0.00 0.00 0.00 0.00 0.00 0.00 0.00 0.00 0.00 0.00 0.00 0.00 0.00 0.00 0.00 0.00 0.00 0.00 0.00
0.00 0.00 0.00 0.00 0.00 0.00 0.00 0.00 0.00 0.00 0.00 0.00 0.00 0.00 0.00 0.00 0.00 0.00 0.00 0.00 0.00 0.00 0.00 0.00 0.00 0.00 0.00 0.00 0.00 0.00 0.00 0.00 0.00 0.00 0.00 0.00 0.00 0.00 0.00 0.00 0.00 0.00 0.00 0.00 0.00 0.00 0.00
0.00 0.00 0.00 0.00 0.00 0.00 0.00 0.00 0.00 0.00 0.00 0.00 0.00 0.00 0.00 0.00 0.00 0.00 0.00 0.00 0.00 0.00 0.00 0.00 0.00 0.00 0.00 0.00 0.00 0.00 0.00 0.00 0.00 0.00 0.00 0.00 0.00 0.00 0.00 0.00 0.00 0.00 0.00 0.00 0.00 0.00 0.00
0.00 0.00 0.00 0.00 0.00 0.00 0.00 0.00 0.00 0.00 0.00 0.00 0.00 0.00 0.00 0.00 0.00 0.00 0.00 0.00 0.00 0.00 0.00 0.00 0.00 0.00 0.00 0.00 0.00 0.00 0.00 0.00 0.00 0.00 0.00 0.00 0.00 0.00 0.00 0.00 0.00 0.00 0.00 0.00 0.00 0.00 0.00
0.00 0.00 0.00 0.00 0.00 0.00 0.00 0.00 0.00 0.00 0.00 0.00 0.00 0.00 0.00 0.00 0.00 0.00 0.00 0.00 0.00 0.00 0.00 0.00 0.00 0.00 0.00 0.00 0.00 0.00 0.00 0.00 0.00 0.00 0.00 0.00 0.00 0.00 0.00 0.00 0.00 0.00 0.00 0.00 0.00 0.00 0.00
0.00 0.00 0.00 0.00 0.00 0.00 0.00 0.00 0.00 0.00 0.00 0.00 0.00 0.00 0.00 0.00 0.00 0.00 0.00 0.00 0.00 0.00 0.00 0.00 0.00 0.00 0.00 0.00 0.00 0.00 0.00 0.00 0.00 0.00 0.00 0.00 0.00 0.00 0.00 0.00 0.00 0.00 0.00 0.00 0.00 0.00 0.00
0.00 0.00 0.00 0.00 0.00 0.00 0.00 0.00 0.00 0.00 0.00 0.00 0.00 0.00 0.00 0.00 0.00 0.00 0.00 0.00 0.00 0.00 0.00 0.00 0.00 0.00 0.00 0.00 0.00 0.00 0.00 0.00 0.00 0.00 0.00 0.00 0.00 0.00 0.00 0.00 0.00 0.00 0.00 0.00 0.00 0.00 0.00
0.00 0.00 0.00 0.00 0.00 0.00 0.00 0.00 0.00 0.00 0.00 0.00 0.00 0.00 0.00 0.00 0.00 0.00 0.00 0.00 0.00 0.00 0.00 0.00 0.00 0.00 0.00 0.00 0.00 0.00 0.00 0.00 0.00 0.00 0.00 0.00 0.00 0.00 0.00 0.00 0.00 0.00 0.00 0.00 0.00 0.00 0.00
0.00 0.00 0.00 0.00 0.00 0.00 0.00 0.00 0.00 0.00 0.00 0.00 0.00 0.00 0.00 0.00 0.00 0.00 0.00 0.00 0.00 0.00 0.00 0.00 0.00 0.00 0.00 0.00 0.00 0.00 0.00 0.00 0.00 0.00 0.00 0.00 0.00 0.00 0.00 0.00 0.00 0.00 0.00 0.00 0.00 0.00 0.00
0.00 0.00 0.00 0.00 0.00 0.00 0.00 0.00 0.00 0.00 0.00 0.00 0.00 0.00 0.00 0.00 0.00 0.00 0.00 0.00 0.00 0.00 0.00 0.00 0.00 0.00 0.00 0.00 0.00 0.00 0.00 0.00 0.00 0.00 0.00 0.00 0.00 0.00 0.00 0.00 0.00 0.00 0.00 0.00 0.00 0.00 0.00
0.00 0.00 0.00 0.00 0.00 0.00 0.00 0.00 0.00 0.00 0.00 0.00 0.00 0.00 0.00 0.00 0.00 0.00 0.00 0.00 0.00 0.00 0.00 0.00 0.00 0.00 0.00 0.00 0.00 0.00 0.00 0.00 0.00 0.00 0.00 0.00 0.00 0.00 0.00 0.00 0.00 0.00 0.00 0.00 0.00 0.00 0.00
0.00 0.00 0.00 0.00 0.00 0.00 0.00 0.00 0.00 0.00 0.00 0.00 0.00 0.00 0.00 0.00 0.00 0.00 0.00 0.00 0.00 0.00 0.00 0.00 0.00 0.00 0.00 0.00 0.00 0.00 0.00 0.00 0.00 0.00 0.00 0.00 0.00 0.00 0.00 0.00 0.00 0.00 0.00 0.00 0.00 0.00 0.00
0.00 0.00 0.00 0.00 0.00 0.00 0.00 0.00 0.00 0.00 0.00 0.00 0.00 0.00 0.00 0.00 0.00 0.00 0.00 0.00 0.00 0.00 0.00 0.00 0.00 0.00 0.00 0.00 0.00 0.00 0.00 0.00 0.00 0.00 0.00 0.00 0.00 0.00 0.00 0.00 0.00 0.00 0.00 0.00 0.00 0.00 0.00
0.00 0.00 0.00 0.00 0.00 0.00 0.00 0.00 0.00 0.00 0.00 0.00 0.00 0.00 0.00 0.00 0.00 0.00 0.00 0.00 0.00 0.00 0.00 0.00 0.00 0.00 0.00 0.00 0.00 0.00 0.00 0.00 0.00 0.00 0.00 0.00 0.00 0.00 0.00 0.00 0.00 0.00 0.00 0.00 0.00 0.00 0.00
0.00 0.00 0.00 0.00 0.00 0.00 0.00 0.00 0.00 0.00 0.00 0.00 0.00 0.00 0.00 0.00 0.00 0.00 0.00 0.00 0.00 0.00 0.00 0.00 0.00 0.00 0.00 0.00 0.00 0.00 0.00 0.00 0.00 0.00 0.00 0.00 0.00 0.00 0.00 0.00 0.00 0.00 0.00 0.00 0.00 0.00 0.00
0.00 0.00 0.00 0.00 0.00 0.00 0.00 0.00 0.00 0.00 0.00 0.00 0.00 0.00 0.00 0.00 0.00 0.00 0.00 0.00 0.00 0.00 0.00 0.00 0.00 0.00 0.00 0.00 0.00 0.00 0.00 0.00 0.00 0.00 0.00 0.00 0.00 0.00 0.00 0.00 0.00 0.00 0.00 0.00 0.00 0.00 0.00
0.00 0.00 0.00 0.00 0.00 0.00 0.00 0.00 0.00 0.00 0.00 0.00 0.00 0.00 0.00 0.00 0.00 0.00 0.00 0.00 0.00 0.00 0.00 0.00 0.00 0.00 0.00 0.00 0.00 0.00 0.00 0.00 0.00 0.00 0.00 0.00 0.00 0.00 0.00 0.00 0.00 0.00 0.00 0.00 0.00 0.00 0.00
0.00 0.00 0.00 0.00 0.00 0.00 0.00 0.00 0.00 0.00 0.00 0.00 0.00 0.00 0.00 0.00 0.00 0.00 0.00 0.00 0.00 0.00 0.00 0.00 0.00 0.00 0.00 0.00 0.00 0.00 0.00 0.00 0.00 0.00 0.00 0.00 0.00 0.00 0.00 0.00 0.00 0.00 0.00 0.00 0.00 0.00 0.00
0.00 0.00 0.00 0.00 0.00 0.00 0.00 0.00 0.00 0.00 0.00 0.00 0.00 0.00 0.00 0.00 0.00 0.00 0.00 0.00 0.00 0.00 0.00 0.00 0.00 0.00 0.00 0.00 0.00 0.00 0.00 0.00 0.00 0.00 0.00 0.00 0.00 0.00 0.00 0.00 0.00 0.00 0.00 0.00 0.00 0.00 0.00
0.00 0.00 0.00 0.00 0.00 0.00 0.00 0.00 0.00 0.00 0.00 0.00 0.00 0.00 0.00 0.00 0.00 0.00 0.00 0.00 0.00 0.00 0.00 0.00 0.00 0.00 0.00 0.00 0.00 0.00 0.00 0.00 0.00 0.00 0.00 0.00 0.00 0.00 0.00 0.00 0.00 0.00 0.00 0.00 0.00 0.00 0.00
0.00 0.00 0.00 0.00 0.00 0.00 0.00 0.00 0.00 0.00 0.00 0.00 0.00 0.00 0.00 0.00 0.00 0.00 0.00 0.00 0.00 0.00 0.00 0.00 0.00 0.00 0.00 0.00 0.00 0.00 0.00 0.00 0.00 0.00 0.00 0.00 0.00 0.00 0.00 0.00 0.00 0.00 0.00 0.00 0.00 0.00 0.00
MSLP
1018.21 1017.91 1017.39 1017.06 1016.49 1016.11 1015.99 1015.52 1015.16 1015.10 1015.05 1015.00 1015.11 1015.18 1015.22 1015.29 1015.40 1015.49 1015.37 1015.22 1015.09 1015.07 1014.99 1014.67 1014.26 1014.47 1014.56 1013.88 1012.49 1011.08 1010.65 1010.52 1010.62 1010.52 1010.88 1011.26 1011.68 1012.14 1012.71 1012.86 1013.08 1013.81 1013.92 1013.98 1013.97 1014.31 1014.28
1018.15 1017.89 1017.45 1016.97 1016.47 1016.01 1015.74 1015.16 1015.08 1014.93 1014.85 1014.78 1014.84 1014.92 1014.90 1014.99 1015.12 1015.14 1015.22 1015.18 1015.18 1014.97 1014.76 1014.56 1014.56 1014.65 1014.25 1012.91 1011.34 1011.11 1010.72 1010.69 1011.27 1011.43 1011.34 1011.52 1012.11 1012.25 1012.65 1013.02 1013.54 1013.79 1013.71 1013.79 1014.20 1014.17 1014.06
1018.11 1017.76 1017.39 1017.05 1016.62 1015.93 1015.48 1015.30 1014.92 1014.60 1014.54 1014.56 1014.48 1014.38 1014.47 1014.60 1014.70 1014.84 1014.86 1014.85 1014.78 1014.78 1014.71 1014.63 1014.45 1014.08 1013.11 1012.16 1011.37 1011.02 1011.00 1011.24 1011.36 1011.42 1011.47 1011.77 1011.74 1012.09 1012.68 1013.39 1014.09 1013.88 1014.00 1014.12 1014.77 1014.33 1014.44
1017.99 1017.75 1017.32 1016.99 1016.62 1016.23 1015.70 1015.28 1015.05 1014.74 1014.57 1014.48 1014.40 1014.28 1014.25 1014.32 1014.38 1014.50 1014.59 1014.57 1014.65 1014.72 1014.70 1014.40 1014.08 1013.62 1012.58 1011.42 1011.31 1011.28 1011.23 1011.30 1011.23 1011.19 1011.32 1011.51 1011.92 1012.50 1013.38 1013.61 1014.36 1015.24 1015.29 1015.46 1015.44 1015.05 1015.16
1017.98 1017.81 1017.40 1017.01 1016.48 1016.11 1015.69 1015.34 1015.13 1014.93 1014.80 1014.58 1014.34 1014.24 1014.17 1014.10 1014.21 1014.36 1014.55 1014.69 1014.71 1014.65 1014.50 1014.15 1013.89 1013.15 1012.67 1011.45 1011.55 1011.68 1011.67 1011.82 1011.53 1011.40 1011.60 1011.81 1012.43 1014.22 1014.41 1015.16 1016.09 1016.72 1016.87 1016.70 1016.21 1015.94 1016.03
1017.99 1017.73 1017.49 1017.04 1016.53 1016.00 1015.59 1015.34 1015.11 1014.84 1014.65 1014.51 1014.20 1014.00 1013.94 1013.87 1013.83 1014.11 1014.34 1014.55 1014.60 1014.52 1014.10 1013.76 1013.55 1013.54 1012.86 1012.67 1012.27 1012.13 1011.98 1011.93 1012.11 1012.23 1012.62 1013.34 1014.31 1015.23 1016.06 1016.33 1017.39 1017.45 1017.31 1017.07 1016.92 1016.62 1016.50
1018.09 1017.78 1017.58 1017.27 1016.75 1016.15 1015.74 1015.33 1014.97 1014.82 1014.51 1014.22 1014.11 1014.00 1013.88 1013.75 1013.86 1014.24 1014.66 1014.84 1015.08 1014.75 1014.14 1014.52 1014.35 1013.88 1013.36 1012.89 1012.64 1012.55 1012.44 1012.40 1012.75 1013.44 1014.54 1014.93 1015.76 1016.67 1016.84 1016.85 1016.96 1017.13 1017.36 1017.41 1017.17 1017.03 1017.23
1018.20 1017.84 1017.75 1017.45 1017.00 1016.47 1015.96 1015.40 1015.10 1014.84 1014.50 1014.30 1014.15 1013.99 1013.91 1013.86 1013.84 1014.16 1014.38 1015.09 1015.40 1015.25 1014.87 1014.29 1014.02 1013.61 1013.15 1013.05 1013.11 1013.01 1012.58 1013.31 1013.93 1014.86 1015.12 1015.84 1016.57 1016.69 1016.85 1016.96 1017.12 1017.20 1017.54 1017.86 1017.58 1017.45 1017.68
1018.16 1018.04 1017.87 1017.62 1017.26 1016.78 1016.24 1015.64 1015.18 1014.89 1014.65 1014.41 1014.23 1014.00 1013.75 1013.61 1013.85 1014.40 1014.65 1015.33 1014.98 1014.87 1015.12 1014.68 1014.05 1013.64 1013.42 1013.40 1013.89 1013.87 1013.70 1014.16 1014.73 1015.31 1015.99 1016.53 1016.99 1016.78 1016.92 1017.38 1017.55 1017.60 1017.78 1018.08 1018.49 1018.09 1017.98
1018.21 1018.09 1017.99 1017.90 1017.54 1017.03 1016.45 1015.96 1015.38 1015.02 1014.78 1014.59 1014.34 1014.04 1013.62 1013.25 1013.62 1014.70 1015.21 1015.31 1015.01 1014.81 1015.75 1015.69 1014.30 1013.54 1013.46 1013.64 1014.46 1014.48 1014.52 1014.78 1015.43 1016.24 1016.62 1017.13 1017.14 1017.16 1017.42 1017.67 1017.92 1018.00 1017.99 1018.43 1018.69 1019.07 1019.04
1018.22 1018.16 1018.12 1018.01 1017.68 1017.17 1016.67 1016.15 1015.59 1015.18 1014.86 1014.66 1014.33 1014.07 1013.67 1013.02 1014.19 1014.97 1015.47 1015.15 1014.82 1014.93 1016.47 1016.03 1014.48 1013.45 1013.99 1014.65 1015.29 1015.35 1015.30 1015.21 1016.42 1017.10 1017.39 1018.02 1017.68 1017.76 1017.87 1018.06 1018.12 1018.22 1018.30 1018.60 1018.96 1019.54 1019.76
1018.14 1018.15 1018.16 1017.97 1017.70 1017.32 1016.81 1016.23 1015.66 1015.25 1014.92 1014.65 1014.36 1014.07 1013.88 1014.01 1014.73 1015.38 1015.13 1014.92 1015.39 1016.43 1016.92 1016.15 1015.06 1014.70 1015.10 1015.66 1016.31 1016.54 1016.43 1016.23 1017.19 1017.79 1018.18 1018.55 1018.10 1018.16 1018.15 1018.04 1018.23 1018.42 1018.84 1019.44 1020.15 1020.65 1021.10
1018.23 1018.20 1018.19 1018.00 1017.77 1017.43 1016.89 1016.33 1015.75 1015.26 1014.89 1014.62 1014.36 1014.08 1014.01 1014.58 1015.44 1015.25 1015.19 1015.86 1017.07 1017.77 1017.38 1016.80 1016.09 1015.87 1016.42 1017.19 1017.67 1018.01 1018.48 1018.66 1019.32 1019.54 1020.15 1019.58 1019.18 1018.77 1018.46 1018.54 1018.61 1019.09 1020.02 1021.07 1022.21 1022.46 1022.77
1018.25 1018.24 1018.13 1018.05 1017.84 1017.51 1016.98 1016.43 1015.82 1015.25 1014.83 1014.49 1014.27 1014.15 1014.89 1015.22 1015.28 1015.12 1015.77 1017.05 1018.02 1018.23 1017.64 1017.04 1016.75 1016.87 1017.64 1018.03 1018.80 1019.20 1019.70 1020.44 1020.36 1020.61 1021.13 1021.04 1020.17 1019.59 1019.17 1019.38 1019.77 1020.29 1021.29 1022.83 1024.05 1024.96 1024.12
1018.32 1018.33 1018.24 1018.08 1017.82 1017.49 1017.04 1016.53 1015.87 1015.31 1014.82 1014.47 1014.35 1015.04 1015.56 1015.62 1015.38 1015.48 1016.76 1018.37 1018.88 1018.49 1017.83 1017.41 1017.40 1017.88 1018.43 1018.59 1019.03 1019.81 1020.63 1021.07 1021.16 1021.09 1021.45 1021.62 1021.02 1020.15 1019.79 1019.84 1020.13 1020.70 1021.93 1023.03 1024.52 1026.13 1025.78
1018.29 1018.33 1018.22 1018.06 1017.84 1017.61 1017.18 1016.59 1015.99 1015.45 1014.94 1014.62 1014.91 1015.79 1016.20 1015.74 1015.60 1016.24 1018.09 1019.18 1018.87 1018.30 1017.76 1017.66 1018.15 1018.65 1019.13 1019.47 1019.70 1020.18 1020.87 1021.16 1021.25 1021.35 1021.33 1021.93 1021.79 1021.00 1020.47 1020.27 1020.49 1020.99 1022.27 1023.37 1024.75 1026.43 1026.37
1018.22 1018.28 1018.18 1018.15 1017.95 1017.76 1017.36 1016.76 1016.14 1015.54 1015.08 1014.72 1015.38 1016.21 1016.03 1015.75 1015.87 1017.18 1019.42 1019.36 1018.72 1018.19 1017.78 1018.13 1018.52 1019.04 1019.63 1019.96 1020.29 1020.78 1021.29 1021.30 1021.27 1021.52 1021.62 1022.18 1022.52 1021.97 1021.42 1021.61 1021.78 1022.05 1022.87 1024.13 1025.25 1026.35 1026.78
1018.28 1018.22 1018.21 1018.25 1018.05 1017.85 1017.49 1016.99 1016.34 1015.71 1015.01 1014.72 1015.97 1016.93 1016.16 1016.06 1017.20 1019.02 1019.54 1019.02 1018.52 1018.45 1018.03 1018.38 1018.78 1019.37 1019.94 1020.47 1020.97 1021.14 1021.41 1021.56 1021.47 1021.74 1022.32 1022.94 1023.52 1023.47 1022.81 1022.36 1022.32 1022.73 1023.63 1024.57 1025.97 1026.95 1027.04
1018.26 1018.33 1018.23 1018.31 1018.12 1018.05 1017.67 1017.32 1016.72 1016.02 1015.53 1015.72 1016.96 1017.19 1016.32 1016.21 1018.52 1020.09 1019.59 1019.26 1018.90 1018.64 1018.83 1018.96 1019.55 1019.92 1020.38 1021.19 1021.68 1021.68 1021.82 1022.02 1021.93 1022.15 1022.72 1023.25 1024.23 1024.55 1023.49 1023.37 1023.35 1023.58 1024.11 1024.76 1025.93 1026.66 1026.79
1018.18 1018.36 1018.40 1018.26 1018.33 1018.13 1017.91 1017.56 1016.96 1016.25 1015.72 1015.87 1017.55 1018.28 1017.96 1018.22 1019.27 1019.55 1019.80 1019.67 1019.36 1019.01 1019.29 1019.61 1020.20 1020.32 1021.02 1021.77 1021.98 1022.32 1022.45 1022.37 1022.42 1022.68 1023.02 1023.51 1024.89 1025.47 1025.56 1024.98 1024.60 1024.56 1024.56 1024.93 1025.58 1026.28 1025.81
1018.10 1018.39 1018.38 1018.39 1018.35 1018.10 1018.15 1017.57 1016.93 1016.28 1015.81 1016.16 1018.00 1019.49 1019.62 1020.47 1020.46 1020.16 1019.89 1019.90 1019.73 1019.58 1019.66 1020.04 1020.76 1021.11 1021.56 1022.38 1022.70 1022.99 1023.07 1023.02 1022.98 1023.29 1023.74 1024.53 1025.70 1026.08 1025.95 1025.43 1024.95 1024.34 1024.28 1024.60 1025.14 1024.87 1025.15
1017.99 1018.37 1018.45 1018.48 1018.44 1018.27 1018.17 1017.70 1017.15 1016.45 1015.97 1016.66 1018.44 1019.31 1020.21 1020.82 1020.86 1020.61 1020.73 1020.41 1020.06 1020.11 1020.15 1020.65 1021.15 1021.69 1021.92 1022.53 1022.90 1023.26 1023.49 1023.70 1023.81 1024.07 1024.68 1025.55 1026.27 1026.71 1026.51 1025.99 1025.60 1024.66 1023.68 1023.72 1023.75 1023.74 1023.49
1017.86 1018.29 1018.49 1018.44 1018.39 1018.32 1018.22 1017.86 1017.51 1016.72 1016.21 1017.52 1018.74 1018.95 1019.45 1021.74 1021.74 1021.55 1021.35 1020.52 1020.29 1020.23 1020.85 1020.85 1021.37 1022.03 1022.45 1022.59 1022.82 1023.15 1023.50 1023.82 1024.31 1024.82 1025.60 1026.52 1027.38 1028.00 1027.43 1026.84 1025.95 1024.28 1022.51 1022.58 1022.65 1022.49 1022.29
1017.73 1018.03 1018.25 1018.37 1018.44 1018.51 1018.41 1018.10 1017.79 1017.25 1016.79 1017.50 1018.52 1019.04 1020.32 1022.40 1022.37 1021.87 1021.18 1020.73 1020.78 1020.72 1021.06 1021.59 1021.90 1022.26 1022.68 1022.72 1023.34 1023.88 1024.43 1025.02 1025.12 1025.44 1025.84 1026.98 1028.01 1028.52 1028.34 1027.41 1026.27 1022.76 1021.95 1021.64 1021.82 1021.66 1021.13
1017.48 1017.87 1018.12 1018.32 1018.46 1018.57 1018.56 1018.24 1018.02 1017.71 1017.24 1017.59 1018.45 1019.03 1020.48 1022.15 1022.53 1021.82 1021.44 1021.30 1021.37 1021.42 1021.82 1022.06 1022.47 1022.90 1023.03 1023.88 1025.41 1026.56 1026.66 1026.38 1026.36 1026.48 1026.60 1026.93 1028.11 1028.71 1028.30 1027.17 1025.22 1022.82 1021.10 1021.05 1021.21 1021.08 1020.64
1017.31 1017.78 1018.10 1018.30 1018.42 1018.61 1018.68 1018.53 1018.33 1018.01 1017.57 1017.77 1018.69 1018.91 1019.81 1021.41 1022.03 1021.22 1021.47 1021.60 1022.20 1022.84 1022.90 1022.99 1023.21 1023.41 1023.86 1025.80 1027.46 1028.66 1028.70 1028.28 1027.57 1027.16 1027.56 1027.99 1028.10 1028.40 1028.21 1027.10 1025.09 1022.02 1020.84 1020.73 1020.96 1021.01 1020.92
1017.16 1017.63 1018.02 1018.31 1018.49 1018.64 1018.80 1018.80 1018.59 1018.26 1017.91 1017.92 1018.98 1018.95 1019.48 1021.28 1021.24 1020.96 1021.05 1021.63 1021.91 1022.68 1023.40 1023.61 1023.87 1024.47 1025.09 1027.04 1028.85 1029.90 1029.59 1028.79 1028.43 1027.96 1027.76 1028.09 1028.25 1027.88 1027.31 1026.33 1024.15 1021.36 1020.85 1020.81 1021.22 1021.43 1020.87
1016.82 1017.42 1017.82 1018.19 1018.48 1018.61 1018.76 1018.89 1018.83 1018.62 1018.28 1018.16 1019.32 1019.11 1019.45 1020.88 1021.00 1020.64 1020.53 1020.83 1021.59 1022.11 1023.04 1023.80 1024.75 1025.34 1026.66 1027.85 1028.94 1029.61 1029.59 1028.72 1028.10 1027.17 1026.82 1027.02 1027.03 1026.78 1026.53 1025.65 1023.31 1021.20 1021.34 1021.56 1021.02 1020.42 1020.82
1016.48 1017.09 1017.58 1017.94 1018.30 1018.56 1018.78 1019.01 1019.06 1018.98 1018.64 1018.35 1019.34 1019.41 1019.53 1020.33 1021.11 1020.85 1020.42 1020.20 1020.23 1020.67 1021.73 1023.28 1024.15 1024.63 1025.53 1026.96 1028.22 1028.98 1029.18 1028.78 1027.75 1027.08 1026.19 1026.03 1024.76 1024.67 1024.59 1023.20 1021.54 1021.04 1020.82 1020.77 1020.63 1020.85 1020.96
Thickness
5588 5592 5596 5599 5604 5607 5607 5612 5616 5618 5619 5622 5624 5628 5631 5635 5638 5642 5647 5652 5658 5662 5666 5671 5677 5677 5678 5678 5684 5707 5713 5714 5717 5717 5709 5705 5696 5693 5680 5686 5687 5679 5679 5681 5686 5679 5682
5586 5589 5594 5599 5604 5608 5610 5617 5618 5622 5623 5627 5630 5632 5636 5640 5644 5648 5652 5657 5661 5666 5671 5675 5677 5679 5685 5674 5708 5712 5717 5719 5714 5710 5707 5708 5699 5699 5689 5688 5683 5687 5686 5685 5686 5686 5687
5584 5588 5593 5597 5603 5610 5613 5617 5622 5626 5629 5631 5635 5640 5644 5647 5651 5654 5659 5663 5668 5672 5675 5678 5682 5688 5692 5689 5711 5717 5718 5716 5716 5714 5706 5709 5710 5704 5695 5685 5685 5686 5681 5676 5676 5679 5683
5584 5587 5593 5598 5603 5607 5613 5618 5621 5625 5630 5634 5640 5645 5650 5654 5658 5662 5665 5670 5673 5675 5677 5683 5688 5696 5689 5712 5714 5715 5717 5714 5718 5719 5717 5718 5715 5702 5692 5693 5678 5667 5663 5650 5673 5677 5678
5583 5586 5592 5597 5603 5609 5614 5618 5622 5627 5632 5638 5644 5650 5655 5660 5663 5666 5668 5671 5674 5678 5682 5688 5694 5696 5684 5714 5706 5713 5715 5708 5713 5717 5715 5714 5706 5681 5678 5665 5652 5645 5643 5651 5656 5667 5667
5583 5586 5591 5596 5603 5609 5615 5621 5627 5633 5638 5643 5650 5656 5661 5666 5670 5672 5674 5675 5679 5683 5689 5694 5696 5684 5693 5688 5702 5708 5713 5712 5707 5706 5701 5692 5676 5664 5655 5650 5632 5645 5646 5648 5648 5662 5660
5581 5584 5589 5594 5601 5608 5615 5624 5632 5637 5643 5649 5655 5660 5666 5671 5674 5675 5676 5677 5678 5679 5687 5680 5680 5681 5689 5699 5706 5702 5707 5706 5701 5688 5669 5673 5655 5647 5658 5661 5660 5658 5650 5646 5652 5661 5655
5579 5584 5588 5592 5599 5606 5616 5626 5634 5640 5647 5653 5658 5664 5669 5674 5678 5679 5681 5676 5675 5680 5672 5686 5687 5690 5697 5699 5686 5694 5706 5689 5681 5665 5673 5658 5650 5663 5660 5658 5657 5656 5648 5640 5646 5653 5652
5578 5581 5586 5592 5597 5605 5615 5626 5636 5642 5649 5655 5661 5668 5674 5679 5680 5679 5680 5676 5681 5685 5666 5677 5686 5686 5689 5693 5680 5681 5691 5684 5673 5664 5658 5649 5657 5661 5658 5648 5645 5646 5647 5643 5638 5641 5649
5577 5581 5584 5589 5595 5604 5615 5625 5636 5643 5650 5656 5663 5669 5676 5682 5679 5676 5673 5678 5682 5685 5640 5654 5672 5683 5688 5689 5673 5686 5685 5680 5667 5658 5659 5654 5656 5653 5647 5647 5645 5635 5648 5643 5636 5633 5625
5576 5579 5583 5588 5595 5604 5615 5625 5635 5643 5651 5657 5664 5670 5676 5684 5675 5670 5674 5678 5682 5678 5601 5657 5667 5693 5682 5672 5671 5669 5678 5676 5654 5651 5651 5643 5647 5641 5638 5642 5645 5636 5641 5639 5640 5630 5628
5576 5579 5582 5588 5595 5603 5614 5625 5635 5643 5651 5657 5664 5670 5674 5676 5673 5671 5675 5678 5674 5623 5609 5648 5664 5661 5662 5659 5658 5659 5658 5665 5658 5644 5642 5637 5646 5642 5640 5645 5644 5642 5635 5629 5622 5616 5601
5573 5577 5580 5586 5593 5601 5612 5623 5633 5643 5650 5657 5663 5668 5671 5670 5663 5670 5673 5665 5624 5602 5644 5642 5647 5654 5646 5641 5641 5639 5632 5627 5619 5624 5609 5623 5628 5632 5637 5629 5635 5627 5613 5587 5589 5578 5584
5572 5576 5580 5585 5591 5599 5610 5620 5631 5642 5650 5657 5662 5665 5663 5663 5666 5669 5664 5637 5618 5626 5634 5646 5645 5641 5632 5635 5629 5625 5623 5611 5618 5613 5595 5597 5597 5620 5628 5625 5619 5616 5604 5572 5576 5559 5571
5569 5573 5578 5583 5590 5598 5607 5618 5629 5639 5648 5655 5659 5656 5656 5658 5663 5664 5644 5601 5604 5617 5636 5637 5636 5626 5624 5629 5626 5618 5610 5605 5609 5610 5601 5585 5599 5616 5622 5619 5618 5612 5589 5595 5566 5513 5540
5566 5570 5576 5582 5588 5595 5604 5615 5626 5636 5646 5652 5650 5646 5646 5655 5658 5652 5619 5612 5628 5631 5638 5636 5622 5623 5616 5616 5618 5613 5609 5612 5610 5608 5611 5601 5592 5608 5612 5616 5613 5605 5598 5576 5556 5541 5550
5564 5569 5575 5580 5585 5592 5600 5611 5622 5633 5641 5647 5643 5634 5645 5652 5653 5633 5602 5605 5630 5635 5637 5629 5622 5618 5614 5614 5613 5607 5604 5610 5612 5609 5606 5601 5592 5597 5604 5595 5591 5587 5575 5572 5566 5550 5531
5562 5567 5572 5577 5583 5589 5597 5607 5618 5629 5639 5643 5632 5620 5643 5647 5626 5600 5612 5628 5631 5629 5632 5627 5623 5619 5614 5609 5605 5606 5604 5605 5607 5607 5597 5592 5574 5568 5590 5595 5592 5586 5577 5563 5531 5540 5522
5559 5563 5569 5574 5581 5586 5594 5602 5613 5624 5633 5633 5622 5624 5639 5643 5602 5581 5619 5622 5624 5626 5621 5623 5617 5616 5612 5603 5598 5602 5601 5600 5599 5599 5593 5590 5564 5550 5574 5579 5578 5576 5572 5560 5534 5517 5529
5556 5560 5566 5573 5576 5583 5591 5599 5609 5619 5628 5629 5617 5604 5617 5620 5611 5615 5614 5615 5615 5622 5616 5612 5611 5612 5605 5595 5593 5594 5592 5597 5593 5593 5585 5583 5563 5559 5545 5561 5563 5561 5562 5554 5544 5529 5527
5553 5558 5563 5569 5574 5581 5586 5597 5607 5616 5624 5625 5608 5601 5607 5594 5599 5610 5613 5615 5611 5611 5616 5610 5605 5603 5601 5586 5587 5584 5585 5584 5588 5583 5580 5573 5562 5556 5556 5557 5557 5565 5559 5551 5535 5538 5530
5550 5553 5559 5565 5570 5577 5584 5594 5602 5612 5620 5614 5607 5605 5597 5594 5604 5609 5595 5608 5608 5607 5610 5604 5598 5598 5598 5589 5588 5583 5582 5577 5576 5577 5570 5557 5541 5550 5547 5544 5539 5544 5553 5544 5542 5541 5534
5547 5550 5555 5562 5566 5572 5580 5589 5596 5606 5614 5605 5599 5603 5606 5570 5584 5587 5588 5605 5606 5605 5601 5604 5597 5590 5584 5589 5589 5589 5582 5579 5574 5570 5558 5550 5516 5510 5519 5522 5515 5536 5555 5543 5545 5542 5541
5543 5547 5552 5557 5562 5566 5575 5582 5588 5597 5606 5604 5600 5599 5587 5566 5556 5582 5598 5603 5600 5602 5596 5596 5593 5581 5589 5588 5584 5575 5567 5556 5561 5557 5552 5517 5502 5492 5492 5515 5516 5560 5559 5548 5540 5539 5543
5539 5543 5548 5552 5556 5561 5568 5575 5581 5588 5597 5598 5596 5597 5581 5552 5557 5583 5593 5592 5594 5593 5592 5592 5589 5582 5579 5569 5547 5537 5535 5536 5535 5536 5536 5523 5503 5498 5513 5511 5515 5551 5552 5548 5535 5531 5538
5534 5538 5542 5547 5551 5555 5560 5566 5573 5580 5589 5591 5589 5591 5587 5563 5568 5590 5585 5587 5565 5567 5566 5579 5575 5570 5564 5527 5523 5507 5512 5523 5539 5540 5514 5505 5485 5481 5488 5496 5505 5538 5538 5534 5526 5506 5518
5528 5532 5537 5541 5545 5549 5553 5558 5565 5573 5580 5584 5580 5584 5583 5562 5576 5582 5569 5571 5570 5559 5558 5550 5568 5553 5549 5514 5510 5490 5506 5516 5513 5495 5492 5482 5485 5506 5503 5490 5497 5525 5523 5523 5502 5506 5511
5524 5526 5531 5535 5539 5543 5547 5551 5556 5563 5570 5575 5570 5575 5577 5558 5567 5578 5580 5572 5565 5558 5545 5552 5546 5532 5523 5518 5502 5499 5464 5496 5504 5515 5504 5502 5479 5465 5471 5477 5485 5518 5516 5507 5507 5510 5501
5521 5522 5525 5529 5533 5536 5539 5543 5548 5553 5560 5566 5563 5566 5568 5563 5564 5565 5571 5573 5573 5568 5553 5539 5548 5537 5523 5510 5500 5481 5479 5475 5490 5506 5507 5497 5509 5502 5500 5492 5514 5516 5511 5506 5502 5492 5483